Wind_Speed
47 45 44 42 41 39 36 35 37 34 31 29 25 23 22 24 25 22 17 15 14 14 13 12 12 11 11 12 13 13 14 14 15 15 16 16 17 17 17 17 17 17 17 18 18 18 19 19 19
49 47 46 45 43 41 37 37 37 35 32 27 26 25 24 27 23 19 17 16 16 15 15 14 14 13 12 13 13 14 14 15 15 16 16 16 16 16 16 16 17 17 17 18 18 18 18 18 19
51 50 48 48 46 42 35 36 39 37 31 30 29 27 29 29 21 19 19 18 17 17 16 16 15 14 14 13 13 14 15 15 16 16 16 16 16 16 16 17 18 18 18 18 18 18 18 18 18
52 52 52 50 47 42 39 42 43 38 33 32 30 30 31 26 22 22 22 20 19 18 17 17 16 16 15 14 14 14 15 16 17 17 18 18 18 18 18 18 19 19 19 19 19 19 18 18 18
53 53 53 52 48 44 43 45 42 38 36 34 33 34 31 29 26 25 23 23 21 19 19 19 18 17 17 16 15 15 16 17 18 19 19 19 19 19 19 19 20 19 19 19 19 19 19 18 19
52 53 54 53 49 45 44 45 43 39 38 36 34 35 32 30 28 27 25 24 23 21 21 21 20 19 19 18 18 18 18 18 19 20 20 20 20 20 20 21 20 20 20 19 19 19 19 19 20
52 51 52 51 49 46 44 45 44 40 39 37 37 37 35 32 30 29 27 26 25 23 23 23 22 21 21 21 20 20 20 20 21 21 21 21 21 21 21 21 21 21 20 20 19 19 19 20 20
52 51 51 51 50 47 44 45 45 42 40 40 38 40 37 33 32 30 29 27 26 25 25 24 23 23 23 23 23 23 22 22 22 22 22 22 22 22 22 22 22 21 21 20 20 20 20 21 21
54 53 52 49 48 46 44 45 45 43 42 41 40 41 37 32 32 31 30 29 28 27 26 26 25 24 24 24 25 25 24 24 23 23 23 23 23 23 23 22 22 22 22 21 21 21 21 21 21
55 53 50 45 45 45 43 43 45 44 42 41 40 40 36 33 32 32 31 30 29 28 27 26 26 26 26 26 26 26 25 25 25 25 24 24 24 24 24 23 23 23 23 22 22 22 22 22 22
54 51 47 45 46 46 45 45 46 44 43 41 41 41 37 35 34 33 32 31 30 29 28 28 28 27 27 27 27 26 26 26 26 26 25 25 25 25 25 25 24 24 24 24 24 24 24 24 24
52 50 48 47 47 46 45 46 45 44 44 45 44 40 37 36 35 34 33 32 31 30 29 29 29 29 28 28 27 27 26 26 26 26 26 26 26 26 26 26 26 25 25 25 26 26 26 26 26
52 50 49 50 48 45 45 45 45 45 47 46 42 39 38 37 36 35 34 33 32 31 30 30 29 29 29 28 28 28 27 27 27 27 27 27 27 27 27 27 27 27 27 28 28 29 28 28 28
50 51 51 51 47 43 44 44 46 46 47 45 41 40 39 38 37 35 34 33 32 31 31 30 30 30 29 29 28 28 28 28 28 28 29 29 29 29 29 29 29 29 30 30 31 31 31 30 30
51 52 52 49 45 43 43 45 46 45 46 44 42 41 39 38 36 35 34 33 33 32 31 31 30 30 30 30 30 30 30 30 29 29 30 31 31 32 32 32 32 32 33 33 33 34 34 33 33
51 51 51 48 45 44 44 44 44 45 45 44 42 41 40 38 36 35 35 34 33 32 32 31 31 31 30 30 31 31 31 31 31 31 32 33 34 35 35 35 35 36 37 37 37 37 37 37 37
51 50 49 47 45 45 45 44 44 46 46 44 42 41 40 38 37 36 35 34 33 33 33 33 32 32 32 32 32 32 32 33 33 34 35 36 37 37 38 38 38 39 39 40 40 40 41 41 40
46 45 46 46 45 44 45 45 44 46 45 43 42 42 41 39 38 37 35 34 34 34 34 34 33 33 33 33 33 33 34 35 36 37 38 39 40 40 41 41 42 42 43 43 43 44 44 44 44
43 44 44 44 46 44 44 45 44 46 44 43 43 42 42 40 39 37 36 35 35 35 34 35 35 34 34 35 36 36 36 36 38 39 40 42 42 43 44 44 45 45 46 46 47 47 48 48 49
42 43 44 45 45 43 43 44 44 45 43 42 43 42 42 41 40 38 37 36 36 35 35 35 35 35 36 37 37 38 39 39 39 41 42 43 45 46 47 47 47 48 49 49 50 50 51 52 52
39 40 42 44 41 41 43 43 43 43 42 41 42 41 41 40 39 38 37 37 36 36 36 36 36 37 37 38 39 40 40 41 41 42 43 44 46 47 48 49 50 51 52 52 53 54 54 55 55
37 39 40 40 38 39 42 43 43 42 41 41 40 40 39 38 37 36 36 36 36 36 36 36 37 38 38 39 40 41 41 42 42 43 44 45 46 48 49 51 52 53 54 55 56 57 58 58 59
36 37 38 37 38 40 40 41 43 43 41 39 39 38 38 37 36 35 35 35 35 35 36 37 37 38 39 39 40 41 41 42 42 43 44 45 46 48 49 51 52 54 55 57 58 60 61 62 62
34 36 38 38 38 39 37 38 40 40 39 38 37 36 36 35 35 35 35 35 35 36 37 37 38 38 39 39 40 40 41 41 42 43 44 45 46 47 49 50 52 53 56 58 60 62 63 64 64
33 36 37 38 38 38 36 37 38 39 38 37 36 35 35 35 34 34 35 35 36 37 38 38 38 38 39 39 39 39 40 40 41 42 43 44 45 46 48 49 51 53 56 58 60 62 63 65 65
30 33 35 36 37 36 36 36 37 36 35 35 35 35 35 35 34 35 35 36 37 37 38 38 38 38 38 38 38 39 39 40 40 41 42 42 43 44 46 48 50 52 54 56 59 60 62 64 65
30 31 33 34 34 35 36 37 36 35 33 34 34 35 35 35 35 35 36 36 37 37 37 37 37 37 37 37 38 38 38 38 39 39 40 41 41 43 45 47 49 51 53 55 57 58 59 60 61
28 28 30 32 33 34 34 34 35 34 34 34 34 34 34 35 35 35 36 36 36 36 36 36 36 36 36 36 36 36 36 37 37 37 38 38 40 42 44 46 48 50 52 54 54 55 55 55 55
26 26 28 30 32 32 33 34 33 32 33 34 34 34 34 35 35 35 35 35 35 34 34 34 34 34 34 34 35 35 35 35 35 36 37 38 40 41 43 46 47 48 49 49 50 50 49 49 49
23 24 25 27 29 30 31 32 29 29 30 31 32 32 33 34 34 34 34 33 33 33 33 33 33 33 33 33 33 33 33 33 34 35 36 37 38 40 42 43 44 44 44 45 45 44 43 43 42
Wind_Direction
211 212 212 212 212 211 209 213 216 216 215 216 217 221 223 225 225 230 232 234 239 245 249 254 258 263 269 276 281 283 285 286 288 289 290 292 294 295 297 298 300 301 302 302 301 301 300 299 298
213 212 212 213 213 212 210 215 217 217 216 216 217 219 223 230 228 234 236 237 241 247 251 255 258 261 264 270 276 280 283 285 288 289 291 293 295 297 299 301 302 302 302 301 300 300 299 299 299
214 213 213 213 213 212 211 218 220 217 215 216 218 219 223 227 226 232 237 240 243 247 251 254 257 260 261 263 269 275 280 284 287 289 291 293 295 298 300 301 302 302 302 301 300 299 299 298 298
214 214 214 214 213 212 213 218 218 216 216 218 219 222 226 230 228 231 236 241 244 247 251 254 256 258 260 261 264 271 278 284 287 290 291 293 295 297 299 300 301 302 303 303 302 301 300 298 298
215 215 216 215 213 212 216 222 219 218 218 219 221 225 225 229 230 232 236 240 243 246 251 253 256 258 261 263 266 271 278 283 287 290 293 295 297 298 299 300 301 303 304 304 304 303 302 300 300
217 217 218 216 214 214 217 224 222 222 221 221 223 228 225 229 231 233 236 240 243 246 250 253 256 260 264 267 271 275 280 284 287 291 293 296 297 298 299 301 302 302 304 304 305 304 303 301 301
218 218 219 218 216 216 218 223 225 224 224 223 225 230 227 228 231 234 236 239 242 244 248 252 257 262 267 271 275 279 282 286 289 291 293 295 297 298 299 300 301 301 302 303 303 304 303 302 301
218 219 219 218 217 216 219 224 225 225 225 225 226 230 228 229 232 234 237 239 241 243 248 253 258 264 269 275 279 282 285 287 289 291 292 294 295 297 298 299 299 299 300 300 301 301 301 301 300
219 218 219 217 218 217 219 224 224 224 226 226 227 232 232 231 233 235 236 238 241 244 248 253 259 265 271 276 280 283 286 288 289 291 291 293 294 295 295 296 296 296 297 297 297 298 298 298 298
220 219 217 217 219 218 218 222 223 222 224 225 227 231 232 230 232 233 235 238 241 245 249 255 261 266 271 276 279 282 285 288 290 291 292 293 294 294 294 293 293 294 294 294 295 295 295 296 296
221 221 218 219 220 219 218 220 221 221 222 223 224 228 229 229 230 232 235 238 242 247 251 256 262 267 271 274 277 281 284 287 289 291 292 293 294 293 293 293 292 292 292 292 292 292 293 293 294
221 221 219 220 221 219 219 220 221 220 221 222 223 225 227 228 230 232 235 239 243 248 253 258 262 266 269 273 276 279 282 285 287 289 292 293 294 294 293 293 292 292 291 290 290 290 291 291 292
219 219 220 221 220 219 219 219 220 220 221 222 222 223 225 227 230 233 237 241 245 249 254 258 262 265 269 272 275 278 280 282 285 288 290 292 293 293 293 293 293 292 291 290 289 289 290 290 291
216 218 220 221 220 219 219 219 220 219 222 222 221 222 224 226 230 234 238 242 246 250 255 258 262 266 269 272 274 276 279 281 283 286 289 290 291 291 291 291 291 291 290 289 289 289 290 290 290
214 217 220 220 219 218 218 219 220 221 223 223 222 223 224 226 230 234 238 243 247 251 255 258 262 266 269 271 274 276 279 281 284 285 287 288 289 289 289 288 288 288 287 287 288 289 288 288 288
216 218 220 219 219 218 218 219 221 222 224 224 224 225 226 227 230 234 238 243 247 250 254 258 261 265 268 271 274 276 279 282 284 285 286 287 287 288 288 287 287 286 286 286 287 287 286 286 285
216 218 220 219 220 220 219 218 221 223 224 225 227 228 229 230 232 236 239 243 246 250 254 258 261 264 267 269 272 275 279 281 283 284 286 286 286 287 288 288 287 287 286 286 285 285 284 284 284
218 219 220 221 221 221 221 220 222 225 225 227 230 232 233 233 235 238 241 244 247 251 254 257 260 263 266 269 271 274 277 280 282 284 285 286 286 287 287 287 287 286 286 285 283 283 282 282 281
218 219 221 222 222 222 222 221 222 226 226 228 231 233 235 237 238 240 243 246 248 251 254 257 260 263 265 269 272 274 276 278 281 283 284 285 285 285 285 285 285 285 285 284 283 282 281 280 279
217 218 219 222 223 222 222 222 222 226 226 228 232 235 237 240 241 243 245 247 250 252 254 257 260 263 266 269 272 275 277 278 279 281 283 283 284 284 285 285 285 284 284 283 283 281 280 279 279
217 220 221 224 223 223 224 223 222 226 227 229 233 236 239 241 243 245 247 249 250 253 255 257 260 263 266 269 272 274 277 279 280 281 280 281 281 282 283 284 283 283 283 283 282 281 280 279 277
217 220 223 224 223 224 225 225 223 224 226 229 233 236 239 242 245 246 248 249 251 254 256 259 261 263 266 269 271 274 276 278 279 280 280 280 280 281 282 282 283 283 283 283 282 281 280 278 277
217 220 223 224 224 226 226 228 226 224 226 229 233 237 240 243 246 247 249 251 254 256 259 262 264 266 268 270 272 274 276 277 278 279 279 280 280 281 281 282 282 282 282 282 282 281 280 278 277
220 221 223 224 226 228 228 230 230 226 225 229 233 236 240 243 246 248 251 254 256 259 262 264 266 268 269 271 273 274 276 277 278 279 280 281 281 282 282 282 283 283 283 282 281 280 278 277 276
221 222 224 225 227 228 228 231 232 229 225 229 233 237 241 244 247 250 253 256 258 261 263 265 267 268 270 271 273 274 275 277 278 280 281 282 283 284 285 285 285 285 284 283 282 281 279 277 275
223 224 225 228 230 230 230 232 233 233 230 232 235 239 242 246 249 252 255 257 260 261 263 265 266 268 269 270 272 274 276 277 279 281 283 284 285 287 288 289 289 289 288 287 286 284 282 279 276
222 224 226 229 232 234 233 234 235 236 235 235 237 241 244 247 250 253 255 257 259 261 262 264 265 267 268 270 272 274 277 279 281 283 285 287 289 291 293 293 294 294 292 291 289 287 285 281 278
222 225 226 227 231 235 237 237 236 237 239 239 241 243 245 247 250 252 254 256 258 259 261 262 264 267 269 271 273 276 279 281 283 285 288 290 292 294 296 297 298 297 295 294 293 291 287 283 279
221 222 225 229 232 234 239 240 237 237 239 241 242 243 245 247 248 250 252 254 256 258 260 262 265 267 270 272 275 278 280 283 285 288 291 293 295 297 299 300 300 299 299 298 298 296 291 287 283
222 224 226 228 231 234 238 243 240 240 240 241 241 242 244 245 246 248 250 252 255 257 260 263 265 268 271 274 277 279 282 285 288 290 292 295 298 300 303 304 304 303 303 303 304 303 297 290 285
Height
5802 5807 5813 5818 5824 5829 5834 5838 5839 5844 5848 5853 5858 5862 5864 5865 5867 5872 5874 5875 5877 5878 5879 5881 5882 5883 5883 5884 5884 5885 5886 5886 5886 5886 5887 5887 5887 5887 5887 5887 5887 5887 5887 5887 5886 5886 5885 5885 5884
5795 5801 5807 5812 5818 5824 5831 5833 5836 5840 5845 5852 5855 5858 5861 5861 5865 5869 5871 5873 5875 5876 5877 5879 5880 5881 5882 5882 5883 5883 5884 5884 5884 5884 5885 5885 5885 5885 5885 5885 5885 5885 5885 5884 5884 5884 5883 5882 5882
5787 5793 5800 5806 5813 5820 5827 5828 5831 5836 5843 5847 5851 5855 5856 5857 5864 5867 5869 5871 5872 5874 5875 5876 5878 5879 5880 5881 5881 5881 5882 5882 5882 5882 5883 5883 5883 5883 5882 5882 5882 5882 5882 5882 5881 5881 5880 5880 5879
5780 5786 5793 5801 5808 5816 5820 5820 5825 5833 5839 5843 5847 5850 5852 5858 5862 5864 5865 5868 5870 5871 5873 5874 5875 5876 5877 5878 5879 5879 5880 5880 5880 5880 5880 5880 5880 5880 5880 5880 5880 5879 5879 5879 5878 5878 5877 5877 5876
5772 5779 5786 5794 5803 5810 5814 5815 5823 5829 5834 5839 5843 5845 5850 5854 5857 5860 5863 5864 5867 5869 5870 5871 5872 5873 5874 5875 5876 5877 5878 5878 5878 5878 5878 5878 5878 5878 5877 5877 5877 5876 5876 5876 5875 5875 5874 5874 5873
5766 5773 5781 5789 5798 5805 5808 5811 5818 5824 5829 5835 5839 5841 5847 5850 5854 5857 5859 5861 5863 5866 5866 5868 5869 5870 5871 5872 5874 5874 5875 5875 5875 5875 5875 5875 5875 5875 5874 5874 5874 5873 5873 5872 5872 5872 5871 5870 5870
5760 5767 5774 5783 5792 5798 5803 5807 5813 5819 5825 5830 5833 5836 5842 5846 5850 5853 5855 5857 5860 5862 5863 5864 5866 5867 5868 5869 5870 5871 5872 5873 5873 5873 5872 5872 5872 5872 5871 5871 5871 5870 5870 5869 5869 5868 5868 5867 5866
5752 5760 5767 5775 5784 5792 5798 5801 5807 5814 5819 5824 5829 5831 5836 5842 5846 5849 5852 5854 5856 5858 5860 5861 5863 5864 5865 5866 5867 5868 5868 5869 5869 5869 5869 5869 5869 5869 5868 5868 5867 5867 5866 5866 5865 5865 5864 5863 5863
5743 5751 5759 5770 5778 5786 5790 5794 5801 5807 5813 5819 5824 5826 5834 5839 5842 5845 5848 5850 5852 5854 5856 5858 5859 5860 5861 5863 5863 5864 5865 5865 5865 5866 5866 5866 5866 5866 5865 5865 5864 5863 5863 5862 5862 5861 5860 5860 5859
5734 5744 5757 5767 5772 5778 5783 5788 5794 5801 5807 5813 5819 5822 5829 5834 5837 5840 5843 5846 5848 5850 5853 5854 5856 5857 5858 5859 5859 5860 5861 5861 5861 5862 5862 5862 5862 5862 5861 5861 5860 5860 5859 5858 5858 5857 5856 5856 5855
5730 5742 5754 5758 5762 5768 5775 5781 5788 5795 5801 5807 5812 5817 5824 5829 5832 5836 5838 5841 5844 5846 5848 5850 5851 5852 5854 5855 5856 5856 5857 5857 5857 5858 5858 5858 5858 5858 5857 5857 5856 5856 5855 5854 5854 5853 5852 5851 5850
5727 5737 5743 5748 5754 5762 5769 5775 5782 5789 5795 5799 5806 5813 5819 5824 5827 5831 5833 5836 5839 5842 5844 5845 5847 5848 5849 5850 5851 5852 5853 5853 5853 5853 5853 5853 5853 5853 5853 5852 5852 5851 5851 5850 5849 5848 5847 5846 5846
5720 5728 5734 5738 5747 5756 5763 5770 5776 5782 5787 5794 5802 5809 5814 5818 5822 5825 5828 5831 5834 5837 5839 5840 5842 5843 5844 5845 5846 5847 5848 5848 5848 5848 5848 5848 5848 5848 5847 5847 5847 5846 5845 5845 5844 5843 5842 5841 5840
5714 5720 5725 5732 5743 5751 5757 5764 5770 5776 5782 5790 5798 5803 5808 5812 5817 5821 5824 5827 5829 5832 5834 5835 5837 5838 5839 5840 5841 5842 5842 5843 5843 5843 5843 5842 5842 5842 5842 5841 5841 5840 5839 5839 5838 5837 5837 5836 5835
5706 5712 5719 5728 5738 5745 5751 5758 5765 5772 5777 5785 5792 5797 5802 5807 5812 5816 5819 5822 5824 5827 5828 5830 5832 5833 5834 5835 5835 5836 5836 5837 5837 5837 5837 5837 5836 5836 5835 5835 5834 5834 5833 5832 5831 5831 5830 5829 5828
5700 5707 5715 5725 5733 5739 5747 5755 5761 5766 5772 5779 5786 5791 5797 5802 5806 5810 5813 5816 5819 5821 5823 5825 5826 5828 5829 5829 5830 5830 5831 5831 5831 5831 5831 5830 5830 5829 5828 5828 5827 5826 5825 5825 5824 5823 5822 5821 5821
5693 5702 5712 5721 5727 5734 5742 5750 5755 5760 5766 5774 5780 5786 5791 5796 5801 5805 5808 5811 5813 5816 5817 5819 5821 5822 5823 5823 5824 5824 5825 5825 5824 5824 5824 5823 5823 5822 5821 5820 5820 5818 5817 5817 5816 5815 5813 5813 5812
5694 5703 5710 5716 5723 5730 5737 5744 5749 5754 5762 5769 5774 5780 5785 5790 5795 5799 5802 5805 5808 5810 5811 5813 5814 5816 5816 5817 5817 5818 5818 5818 5817 5817 5816 5816 5815 5814 5813 5812 5811 5810 5809 5808 5807 5805 5804 5803 5802
5691 5698 5705 5711 5716 5724 5731 5737 5744 5749 5756 5763 5768 5773 5779 5784 5788 5792 5796 5799 5801 5803 5805 5806 5808 5809 5810 5810 5810 5811 5811 5811 5811 5810 5809 5807 5806 5805 5804 5803 5802 5800 5799 5798 5797 5795 5794 5793 5791
5685 5692 5699 5703 5711 5720 5725 5731 5738 5743 5751 5757 5762 5767 5772 5777 5782 5786 5789 5792 5795 5797 5798 5800 5801 5802 5802 5803 5803 5803 5803 5804 5803 5802 5801 5799 5797 5795 5794 5793 5792 5790 5788 5787 5786 5784 5783 5782 5780
5683 5689 5695 5700 5708 5714 5720 5726 5733 5739 5745 5751 5756 5761 5766 5771 5775 5779 5782 5785 5787 5790 5791 5792 5793 5794 5795 5795 5795 5795 5795 5795 5794 5793 5792 5790 5788 5786 5784 5782 5781 5779 5777 5775 5774 5772 5770 5769 5768
5679 5685 5690 5696 5705 5708 5714 5720 5727 5733 5739 5745 5750 5755 5759 5764 5768 5772 5775 5777 5780 5782 5783 5784 5786 5786 5787 5787 5787 5787 5787 5786 5785 5783 5782 5781 5779 5776 5774 5772 5770 5767 5765 5763 5761 5759 5757 5755 5754
5676 5681 5687 5693 5698 5702 5708 5714 5721 5727 5734 5739 5744 5748 5753 5757 5760 5764 5767 5769 5771 5773 5775 5776 5777 5778 5779 5779 5779 5778 5777 5777 5775 5774 5772 5771 5769 5766 5764 5762 5759 5756 5754 5751 5748 5745 5743 5741 5739
5673 5678 5683 5687 5692 5698 5704 5709 5714 5722 5728 5733 5737 5742 5746 5749 5753 5756 5759 5761 5763 5765 5766 5767 5768 5769 5769 5769 5769 5769 5768 5767 5766 5764 5762 5760 5758 5756 5753 5751 5748 5745 5742 5738 5735 5731 5728 5726 5723
5669 5675 5679 5682 5686 5693 5699 5703 5709 5715 5722 5727 5731 5735 5739 5742 5745 5748 5750 5753 5755 5756 5758 5759 5759 5760 5760 5760 5760 5759 5758 5757 5756 5754 5752 5750 5748 5745 5742 5739 5736 5733 5729 5724 5720 5716 5713 5709 5706
5666 5671 5676 5680 5684 5690 5694 5698 5704 5709 5715 5720 5724 5728 5731 5735 5737 5740 5742 5744 5746 5747 5748 5749 5750 5750 5751 5751 5750 5749 5749 5747 5746 5744 5742 5740 5737 5734 5731 5727 5723 5719 5714 5709 5704 5700 5696 5692 5689
5663 5667 5672 5677 5680 5684 5688 5693 5698 5703 5708 5713 5717 5721 5724 5727 5730 5732 5734 5736 5737 5738 5739 5740 5741 5741 5741 5741 5741 5740 5739 5737 5736 5734 5732 5729 5726 5723 5719 5715 5710 5705 5700 5694 5688 5683 5678 5674 5671
5660 5664 5668 5672 5675 5679 5683 5687 5693 5697 5702 5706 5710 5713 5716 5719 5721 5723 5725 5727 5728 5729 5730 5731 5732 5732 5732 5732 5731 5730 5729 5727 5726 5724 5721 5718 5715 5711 5707 5702 5697 5691 5685 5679 5672 5667 5661 5657 5654
5658 5661 5664 5667 5671 5675 5678 5683 5687 5691 5694 5698 5702 5705 5708 5710 5713 5715 5717 5718 5720 5721 5722 5722 5723 5723 5723 5722 5722 5721 5719 5718 5716 5714 5711 5708 5704 5700 5695 5690 5684 5678 5671 5664 5658 5651 5646 5641 5639
5654 5657 5660 5664 5667 5670 5674 5679 5680 5684 5688 5691 5694 5697 5700 5702 5705 5707 5709 5711 5712 5713 5714 5714 5714 5714 5714 5713 5713 5711 5710 5709 5707 5704 5701 5698 5694 5690 5684 5678 5672 5666 5659 5652 5645 5638 5632 5628 5625